Time,TemperatureF,DewpointF,PressureIn,WindDirection,WindDirectionDegrees,WindSpeedMPH,WindSpeedGustMPH,Humidity,HourlyPrecipIn,Conditions,Clouds,dailyrainin,SoftwareType,DateUTC
2013-07-10 00:01:00,56.0,53.0,30.00,North,-999,-999.0,-999.0,89,-99.99,,,-99.99,,2013-07-10 07:01:00,
2013-07-10 00:11:00,56.0,53.0,30.00,North,-999,-999.0,-999.0,89,-99.99,,,-99.99,,2013-07-10 07:11:00,
2013-07-10 00:33:00,56.0,53.0,30.00,North,-999,-999.0,-999.0,90,-99.99,,,-99.99,,2013-07-10 07:33:00,
2013-07-10 00:43:00,56.0,53.0,30.00,North,-999,-999.0,-999.0,90,-99.99,,,-99.99,,2013-07-10 07:43:00,
2013-07-10 00:53:00,56.0,53.0,30.00,North,-999,-999.0,-999.0,90,-99.99,,,-99.99,,2013-07-10 07:53:00,
2013-07-10 01:01:00,56.0,53.0,30.00,North,-999,-999.0,-999.0,91,-99.99,,,-99.99,,2013-07-10 08:01:00,
2013-07-10 01:11:00,56.0,53.0,30.00,North,-999,-999.0,-999.0,91,-99.99,,,-99.99,,2013-07-10 08:11:00,
2013-07-10 01:33:00,55.0,53.0,30.01,North,-999,-999.0,-999.0,91,-99.99,,,-99.99,,2013-07-10 08:33:00,
2013-07-10 01:42:00,55.0,53.0,30.01,North,-999,-999.0,-999.0,91,-99.99,,,-99.99,,2013-07-10 08:42:00,
2013-07-10 01:53:00,55.0,52.0,30.01,North,-999,-999.0,-999.0,92,-99.99,,,-99.99,,2013-07-10 08:53:00,
2013-07-10 02:02:00,55.0,52.0,30.01,North,-999,-999.0,-999.0,92,-99.99,,,-99.99,,2013-07-10 09:02:00,
2013-07-10 02:12:00,55.0,52.0,30.01,North,-999,-999.0,-999.0,92,-99.99,,,-99.99,,2013-07-10 09:12:00,
2013-07-10 02:32:00,54.0,53.0,30.01,North,-999,-999.0,-999.0,93,-99.99,,,-99.99,,2013-07-10 09:32:00,
2013-07-10 02:42:00,54.0,53.0,30.01,North,-999,-999.0,-999.0,93,-99.99,,,-99.99,,2013-07-10 09:42:00,
2013-07-10 02:52:00,54.0,53.0,30.01,North,-999,-999.0,-999.0,93,-99.99,,,-99.99,,2013-07-10 09:52:00,
2013-07-10 03:01:00,55.0,53.0,30.01,North,-999,-999.0,-999.0,93,-99.99,,,-99.99,,2013-07-10 10:01:00,
2013-07-10 03:13:00,55.0,53.0,30.01,North,-999,-999.0,-999.0,93,-99.99,,,-99.99,,2013-07-10 10:13:00,
2013-07-10 03:32:00,55.0,53.0,30.01,North,-999,-999.0,-999.0,94,-99.99,,,-99.99,,2013-07-10 10:32:00,
2013-07-10 04:02:00,54.0,53.0,30.01,North,-999,-999.0,-999.0,95,-99.99,,,-99.99,,2013-07-10 11:02:00,
2013-07-10 04:11:00,54.0,53.0,30.01,North,-999,-999.0,-999.0,95,-99.99,,,-99.99,,2013-07-10 11:11:00,
2013-07-10 04:33:00,54.0,53.0,30.01,North,-999,-999.0,-999.0,96,-99.99,,,-99.99,,2013-07-10 11:33:00,
2013-07-10 04:43:00,54.0,53.0,30.01,North,-999,-999.0,-999.0,96,-99.99,,,-99.99,,2013-07-10 11:43:00,
2013-07-10 04:52:00,54.0,53.0,30.01,North,-999,-999.0,-999.0,96,-99.99,,,-99.99,,2013-07-10 11:52:00,
2013-07-10 05:01:00,54.0,53.0,30.01,North,-999,-999.0,-999.0,96,-99.99,,,-99.99,,2013-07-10 12:01:00,
2013-07-10 05:11:00,54.0,53.0,30.01,North,-999,-999.0,-999.0,96,-99.99,,,-99.99,,2013-07-10 12:11:00,
2013-07-10 05:33:00,54.0,53.0,30.02,North,-999,-999.0,-999.0,96,-99.99,,,-99.99,,2013-07-10 12:33:00,
2013-07-10 05:43:00,54.0,53.0,30.02,North,-999,-999.0,-999.0,96,-99.99,,,-99.99,,2013-07-10 12:43:00,
2013-07-10 05:52:00,54.0,53.0,30.01,North,-999,-999.0,-999.0,97,-99.99,,,-99.99,,2013-07-10 12:52:00,
2013-07-10 06:01:00,54.0,53.0,30.01,North,-999,-999.0,-999.0,97,-99.99,,,-99.99,,2013-07-10 13:01:00,
2013-07-10 06:11:00,54.0,53.0,30.01,North,-999,-999.0,-999.0,97,-99.99,,,-99.99,,2013-07-10 13:11:00,
2013-07-10 06:32:00,54.0,53.0,30.01,North,-999,-999.0,-999.0,97,-99.99,,,-99.99,,2013-07-10 13:32:00,
2013-07-10 06:43:00,54.0,53.0,30.01,North,-999,-999.0,-999.0,97,-99.99,,,-99.99,,2013-07-10 13:43:00,
2013-07-10 06:52:00,54.0,53.0,30.01,North,-999,-999.0,-999.0,97,-99.99,,,-99.99,,2013-07-10 13:52:00,
2013-07-10 07:01:00,55.0,54.0,30.01,North,-999,-999.0,-999.0,97,-99.99,,,-99.99,,2013-07-10 14:01:00,
2013-07-10 07:11:00,55.0,54.0,30.01,North,-999,-999.0,-999.0,97,-99.99,,,-99.99,,2013-07-10 14:11:00,
2013-07-10 07:33:00,56.0,55.0,30.02,North,-999,-999.0,-999.0,97,-99.99,,,-99.99,,2013-07-10 14:33:00,
2013-07-10 07:43:00,56.0,55.0,30.02,North,-999,-999.0,-999.0,97,-99.99,,,-99.99,,2013-07-10 14:43:00,
2013-07-10 07:53:00,56.0,55.0,30.02,North,-999,-999.0,-999.0,97,-99.99,,,-99.99,,2013-07-10 14:53:00,
2013-07-10 08:01:00,56.0,56.0,30.02,North,-999,-999.0,-999.0,96,-99.99,,,-99.99,,2013-07-10 15:01:00,
2013-07-10 08:11:00,56.0,56.0,30.02,North,-999,-999.0,-999.0,96,-99.99,,,-99.99,,2013-07-10 15:11:00,
2013-07-10 08:34:00,58.0,56.0,30.02,North,-999,-999.0,-999.0,95,-99.99,,,-99.99,,2013-07-10 15:34:00,
2013-07-10 08:42:00,58.0,56.0,30.02,North,-999,-999.0,-999.0,95,-99.99,,,-99.99,,2013-07-10 15:42:00,
2013-07-10 08:52:00,58.0,56.0,30.02,North,-999,-999.0,-999.0,95,-99.99,,,-99.99,,2013-07-10 15:52:00,
2013-07-10 09:01:00,56.0,55.0,30.03,North,-999,-999.0,-999.0,94,-99.99,,,-99.99,,2013-07-10 16:01:00,
2013-07-10 09:11:00,56.0,55.0,30.03,North,-999,-999.0,-999.0,94,-99.99,,,-99.99,,2013-07-10 16:11:00,
2013-07-10 09:33:00,58.0,56.0,30.04,North,-999,-999.0,-999.0,93,-99.99,,,-99.99,,2013-07-10 16:33:00,
2013-07-10 09:44:00,58.0,56.0,30.04,North,-999,-999.0,-999.0,93,-99.99,,,-99.99,,2013-07-10 16:44:00,
2013-07-10 09:53:00,58.0,56.0,30.04,North,-999,-999.0,-999.0,93,-99.99,,,-99.99,,2013-07-10 16:53:00,
2013-07-10 10:01:00,59.0,56.0,30.04,North,-999,-999.0,-999.0,92,-99.99,,,-99.99,,2013-07-10 17:01:00,
2013-07-10 10:11:00,59.0,56.0,30.04,North,-999,-999.0,-999.0,92,-99.99,,,-99.99,,2013-07-10 17:11:00,
2013-07-10 10:32:00,59.0,56.0,30.04,North,-999,-999.0,-999.0,89,-99.99,,,-99.99,,2013-07-10 17:32:00,
2013-07-10 10:42:00,59.0,56.0,30.04,North,-999,-999.0,-999.0,89,-99.99,,,-99.99,,2013-07-10 17:42:00,
2013-07-10 10:52:00,59.0,56.0,30.04,North,-999,-999.0,-999.0,87,-99.99,,,-99.99,,2013-07-10 17:52:00,
2013-07-10 11:02:00,59.0,56.0,30.04,North,-999,-999.0,-999.0,87,-99.99,,,-99.99,,2013-07-10 18:02:00,
2013-07-10 11:11:00,59.0,56.0,30.04,North,-999,-999.0,-999.0,87,-99.99,,,-99.99,,2013-07-10 18:11:00,
2013-07-10 11:32:00,62.0,57.0,30.04,North,-999,-999.0,-999.0,83,-99.99,,,-99.99,,2013-07-10 18:32:00,
2013-07-10 11:44:00,62.0,57.0,30.04,North,-999,-999.0,-999.0,83,-99.99,,,-99.99,,2013-07-10 18:44:00,
2013-07-10 11:52:00,62.0,57.0,30.04,North,-999,-999.0,-999.0,81,-99.99,,,-99.99,,2013-07-10 18:52:00,
2013-07-10 12:01:00,62.0,57.0,30.04,North,-999,-999.0,-999.0,81,-99.99,,,-99.99,,2013-07-10 19:01:00,
2013-07-10 12:11:00,62.0,57.0,30.04,North,-999,-999.0,-999.0,81,-99.99,,,-99.99,,2013-07-10 19:11:00,
2013-07-10 12:32:00,62.0,56.0,30.03,North,-999,-999.0,-999.0,81,-99.99,,,-99.99,,2013-07-10 19:32:00,
2013-07-10 12:42:00,62.0,56.0,30.03,North,-999,-999.0,-999.0,81,-99.99,,,-99.99,,2013-07-10 19:42:00,
2013-07-10 12:52:00,64.0,56.0,30.03,North,-999,-999.0,-999.0,76,-99.99,,,-99.99,,2013-07-10 19:52:00,
2013-07-10 13:01:00,64.0,56.0,30.03,North,-999,-999.0,-999.0,76,-99.99,,,-99.99,,2013-07-10 20:01:00,
2013-07-10 13:11:00,64.0,56.0,30.03,North,-999,-999.0,-999.0,76,-99.99,,,-99.99,,2013-07-10 20:11:00,
2013-07-10 13:32:00,67.0,57.0,30.03,North,-999,-999.0,-999.0,71,-99.99,,,-99.99,,2013-07-10 20:32:00,
2013-07-10 13:43:00,67.0,57.0,30.03,North,-999,-999.0,-999.0,71,-99.99,,,-99.99,,2013-07-10 20:43:00,
2013-07-10 13:52:00,66.0,57.0,30.02,North,-999,-999.0,-999.0,72,-99.99,,,-99.99,,2013-07-10 20:52:00,
2013-07-10 14:01:00,66.0,57.0,30.02,North,-999,-999.0,-999.0,72,-99.99,,,-99.99,,2013-07-10 21:01:00,
2013-07-10 14:11:00,66.0,57.0,30.02,North,-999,-999.0,-999.0,72,-99.99,,,-99.99,,2013-07-10 21:11:00,
2013-07-10 14:32:00,66.0,57.0,30.02,North,-999,-999.0,-999.0,71,-99.99,,,-99.99,,2013-07-10 21:32:00,
2013-07-10 14:41:00,66.0,57.0,30.02,North,-999,-999.0,-999.0,71,-99.99,,,-99.99,,2013-07-10 21:41:00,
2013-07-10 14:52:00,62.0,54.0,30.01,North,-999,-999.0,-999.0,73,-99.99,,,-99.99,,2013-07-10 21:52:00,
2013-07-10 15:01:00,62.0,54.0,30.01,North,-999,-999.0,-999.0,73,-99.99,,,-99.99,,2013-07-10 22:01:00,
2013-07-10 15:11:00,62.0,54.0,30.01,North,-999,-999.0,-999.0,73,-99.99,,,-99.99,,2013-07-10 22:11:00,
2013-07-10 15:33:00,61.0,53.0,30.00,North,-999,-999.0,-999.0,74,-99.99,,,-99.99,,2013-07-10 22:33:00,
2013-07-10 15:42:00,61.0,53.0,30.00,North,-999,-999.0,-999.0,74,-99.99,,,-99.99,,2013-07-10 22:42:00,
2013-07-10 15:53:00,62.0,53.0,30.00,North,-999,-999.0,-999.0,72,-99.99,,,-99.99,,2013-07-10 22:53:00,
2013-07-10 16:01:00,62.0,53.0,30.00,North,-999,-999.0,-999.0,72,-99.99,,,-99.99,,2013-07-10 23:01:00,
2013-07-10 16:11:00,62.0,53.0,30.00,North,-999,-999.0,-999.0,72,-99.99,,,-99.99,,2013-07-10 23:11:00,
2013-07-10 16:21:00,62.0,53.0,30.00,North,-999,-999.0,-999.0,72,-99.99,,,-99.99,,2013-07-10 23:21:00,
2013-07-10 16:32:00,62.0,52.0,29.99,North,-999,-999.0,-999.0,70,-99.99,,,-99.99,,2013-07-10 23:32:00,
2013-07-10 16:43:00,62.0,52.0,29.99,North,-999,-999.0,-999.0,70,-99.99,,,-99.99,,2013-07-10 23:43:00,
2013-07-10 16:52:00,63.0,53.0,29.98,North,-999,-999.0,-999.0,70,-99.99,,,-99.99,,2013-07-10 23:52:00,
2013-07-10 17:01:00,63.0,53.0,29.98,North,-999,-999.0,-999.0,70,-99.99,,,-99.99,,2013-07-11 00:01:00,
2013-07-10 17:11:00,63.0,53.0,29.98,North,-999,-999.0,-999.0,70,-99.99,,,-99.99,,2013-07-11 00:11:00,
2013-07-10 17:22:00,63.0,53.0,29.98,North,-999,-999.0,-999.0,70,-99.99,,,-99.99,,2013-07-11 00:22:00,
2013-07-10 18:01:00,66.0,54.0,29.95,North,-999,-999.0,-999.0,66,-99.99,,,-99.99,,2013-07-11 01:01:00,
2013-07-10 18:11:00,66.0,54.0,29.95,North,-999,-999.0,-999.0,66,-99.99,,,-99.99,,2013-07-11 01:11:00,
2013-07-10 18:32:00,67.0,54.0,29.93,North,-999,-999.0,-999.0,62,-99.99,,,-99.99,,2013-07-11 01:32:00,
2013-07-10 18:43:00,67.0,54.0,29.93,North,-999,-999.0,-999.0,62,-99.99,,,-99.99,,2013-07-11 01:43:00,
2013-07-10 18:52:00,65.0,52.0,29.93,North,-999,-999.0,-999.0,61,-99.99,,,-99.99,,2013-07-11 01:52:00,
2013-07-10 19:02:00,65.0,52.0,29.93,North,-999,-999.0,-999.0,61,-99.99,,,-99.99,,2013-07-11 02:02:00,
2013-07-10 19:11:00,65.0,52.0,29.93,North,-999,-999.0,-999.0,61,-99.99,,,-99.99,,2013-07-11 02:11:00,
2013-07-10 19:32:00,64.0,51.0,29.92,North,-999,-999.0,-999.0,62,-99.99,,,-99.99,,2013-07-11 02:32:00,
2013-07-10 19:43:00,64.0,51.0,29.92,North,-999,-999.0,-999.0,62,-99.99,,,-99.99,,2013-07-11 02:43:00,
2013-07-10 19:53:00,64.0,51.0,29.92,North,-999,-999.0,-999.0,62,-99.99,,,-99.99,,2013-07-11 02:53:00,
2013-07-10 20:01:00,63.0,51.0,29.93,North,-999,-999.0,-999.0,64,-99.99,,,-99.99,,2013-07-11 03:01:00,
2013-07-10 20:11:00,63.0,51.0,29.93,North,-999,-999.0,-999.0,64,-99.99,,,-99.99,,2013-07-11 03:11:00,
2013-07-10 20:33:00,62.0,51.0,29.92,North,-999,-999.0,-999.0,65,-99.99,,,-99.99,,2013-07-11 03:33:00,
2013-07-10 20:42:00,62.0,51.0,29.92,North,-999,-999.0,-999.0,65,-99.99,,,-99.99,,2013-07-11 03:42:00,
2013-07-10 20:52:00,61.0,50.0,29.92,North,-999,-999.0,-999.0,67,-99.99,,,-99.99,,2013-07-11 03:52:00,
2013-07-10 21:01:00,61.0,50.0,29.92,North,-999,-999.0,-999.0,67,-99.99,,,-99.99,,2013-07-11 04:01:00,
2013-07-10 21:11:00,61.0,50.0,29.92,North,-999,-999.0,-999.0,67,-99.99,,,-99.99,,2013-07-11 04:11:00,
2013-07-10 21:32:00,59.0,49.0,29.92,North,-999,-999.0,-999.0,68,-99.99,,,-99.99,,2013-07-11 04:32:00,
2013-07-10 21:42:00,59.0,49.0,29.92,North,-999,-999.0,-999.0,68,-99.99,,,-99.99,,2013-07-11 04:42:00,
2013-07-10 21:53:00,58.0,48.0,29.93,North,-999,-999.0,-999.0,70,-99.99,,,-99.99,,2013-07-11 04:53:00,
2013-07-10 22:01:00,58.0,48.0,29.93,North,-999,-999.0,-999.0,70,-99.99,,,-99.99,,2013-07-11 05:01:00,
2013-07-10 22:12:00,58.0,48.0,29.93,North,-999,-999.0,-999.0,70,-99.99,,,-99.99,,2013-07-11 05:12:00,
2013-07-10 22:32:00,57.0,48.0,29.94,North,-999,-999.0,-999.0,72,-99.99,,,-99.99,,2013-07-11 05:32:00,
2013-07-10 22:43:00,57.0,48.0,29.94,North,-999,-999.0,-999.0,72,-99.99,,,-99.99,,2013-07-11 05:43:00,
2013-07-10 22:52:00,57.0,48.0,29.94,North,-999,-999.0,-999.0,72,-99.99,,,-99.99,,2013-07-11 05:52:00,
2013-07-10 23:01:00,56.0,48.0,29.94,North,-999,-999.0,-999.0,73,-99.99,,,-99.99,,2013-07-11 06:01:00,
2013-07-10 23:11:00,56.0,48.0,29.94,North,-999,-999.0,-999.0,73,-99.99,,,-99.99,,2013-07-11 06:11:00,
2013-07-10 23:32:00,56.0,48.0,29.94,North,-999,-999.0,-999.0,73,-99.99,,,-99.99,,2013-07-11 06:32:00,
2013-07-10 23:43:00,56.0,48.0,29.94,North,-999,-999.0,-999.0,73,-99.99,,,-99.99,,2013-07-11 06:43:00,
2013-07-10 23:52:00,56.0,48.0,29.95,North,-999,-999.0,-999.0,74,-99.99,,,-99.99,,2013-07-11 06:52:00,